Казлу-Руда

Литва     54°45′05″N   23°29′54″E
темп.,
°C
ветер,
м/с
пор.,
м/с
влажн.,
%
обл.,
%
осадки,
мм/ч
давл.,
гПа
погр.,
м
7 марта, вс
вс723:00+1зюз91673100 0.0 10151148
02:00+2з111981100 0.0 10111344
05:00+1з111895100 0.2 10071120
08:00+1з101696100 1.9 10061000
11:00+1зсз71181100 1.8 10071074
14:00+2з81170100 1.9 10061357
17:00+1з71170100 0.3 10061357
20:00−2зсз5127379 0.4 1008688
8 марта, пн
пн823:00−3зсз5127315 0.0 1008759
02:00−2зсз7146924 0.0 10091111
05:00−3ссз61071100 0.4 10101213
08:00−3ссз596969 0.4 1012864
11:00−2ссз466267 0.0 10141083
14:000сз575180 0.0 10161467
17:00−1ссз5760100 0.0 10171305
20:00−3с377281 0.1 1019420
9 марта, вт
вт923:00−4ссз26730 0.0 1020488
02:00−4сз23717 0.0 1022235
05:00−4сз127098 0.0 1022130
08:00−4зюз236899 0.0 1022193
11:00−2юз3361100 0.0 1022649
14:000зюз444596 0.0 10221041
17:000зюз455173 0.0 10211025
20:00−3юз346774 0.0 1022115
10 марта, ср
ср1023:00−3юз356758 0.0 1022148
02:00−3юз366742 0.0 1021178
05:00−4юз367763 0.0 1020155
08:00−3юз378262 0.0 1020230
11:00+1зюз56537 0.0 1020861
14:00+3зюз674620 0.0 10201173
17:00+1зюз586489 0.0 10201031
20:00−2з378977 0.1 1020210
11 марта, чт
чт1123:00−2з369057 0.0 1021244
02:00−3зюз248873 0.0 1021251
05:00−3ююв249498 0.1 1020188
08:00−2ю487164 0.1 1019296
11:00+2ю7105196 0.0 10171008
14:00+3ю8134898 0.0 10141135
17:00+2ююв91549100 0.0 10111078
20:00+1ю101859100 0.1 1008977